Wind_Speed
14 14 14 14 15 15 16 16 17 17 17 17 17 17 17 17 17 16 15 14 13 13 12 11 11 10 9 9 9 8 8 8 7 7 6 6 6 6 6 6 6 6 5 5 5 4 4 4 4 4 3 3 4 5 5 5 5 5 7 7 5 3 5 6 8 8 9 9 7 7 8 9 8 8 8 9 9 9 7 6 6 5 4 5 5 6 6 5
14 14 14 14 15 15 15 16 17 17 17 17 17 17 17 17 16 15 14 14 13 12 12 11 11 10 10 9 8 8 8 7 6 7 7 6 7 7 6 6 6 5 5 4 4 3 3 3 3 2 2 2 3 4 4 4 5 7 9 9 5 3 7 8 8 9 9 9 9 8 9 10 8 6 7 8 9 10 8 7 5 3 4 4 5 6 6 6
14 14 14 15 15 15 15 16 16 17 17 17 17 17 16 16 15 14 13 13 13 12 12 11 11 10 10 9 8 8 8 7 6 8 7 7 7 7 7 6 6 5 4 4 3 3 3 3 3 2 2 2 3 4 4 4 7 9 10 9 6 5 7 7 8 10 10 11 11 10 9 10 9 6 6 7 9 10 10 8 5 3 5 5 5 6 7 6
14 14 15 15 15 15 15 16 16 16 16 16 16 16 15 15 14 14 13 13 13 12 12 11 10 10 9 9 8 8 8 7 7 7 7 7 7 7 7 6 6 5 4 4 3 2 3 3 3 3 2 3 4 4 4 5 7 9 10 9 7 7 7 6 7 10 12 13 11 11 11 11 10 8 7 9 10 12 11 10 8 6 7 7 7 7 7 7
15 15 15 15 15 16 15 15 16 16 15 15 15 15 14 14 13 13 13 13 13 12 12 11 10 9 9 8 7 8 8 6 6 7 7 7 7 6 7 6 6 5 4 4 3 3 3 3 3 3 2 3 3 4 4 5 6 8 9 9 9 9 7 5 7 9 11 11 10 11 12 12 12 10 9 10 10 11 12 12 11 10 10 9 9 9 9 9
15 15 15 15 16 16 16 16 16 16 16 15 15 15 14 13 13 13 14 14 13 13 12 11 10 9 9 8 7 8 7 6 6 6 7 7 7 7 7 6 6 5 5 4 4 3 4 4 4 3 3 4 3 4 5 5 5 6 8 8 9 10 8 6 6 7 8 9 9 10 11 12 13 12 12 12 11 11 12 13 13 13 12 11 11 11 12 11
15 15 15 15 16 16 16 16 17 17 16 16 15 15 14 14 14 14 15 14 13 12 12 11 10 9 9 8 8 9 8 8 8 6 5 5 6 7 7 7 6 6 5 5 4 4 5 5 4 3 4 4 3 3 4 4 5 6 7 7 8 9 9 8 8 8 9 9 10 11 11 12 14 15 14 14 13 12 12 13 14 14 13 12 12 13 13 13
15 15 15 15 15 16 16 16 17 17 17 17 16 16 15 15 15 15 15 15 14 13 12 11 10 10 10 9 9 9 9 9 10 9 7 6 6 6 7 7 6 6 6 6 6 6 6 5 4 5 4 4 3 2 4 4 5 6 7 6 6 8 9 9 9 10 10 11 12 12 12 13 15 16 16 15 14 13 14 14 15 16 14 13 13 14 15 14
16 16 16 16 16 16 16 17 17 17 17 17 17 17 17 17 17 17 16 15 15 14 13 12 11 11 11 10 9 9 10 10 10 10 10 9 8 7 7 8 7 7 6 6 7 6 6 5 5 6 5 5 5 3 4 4 6 6 7 7 7 8 10 10 10 11 12 12 13 13 14 14 15 17 16 14 14 14 15 16 16 17 16 15 15 15 16 16
17 17 17 16 16 17 17 17 18 18 18 18 18 18 18 18 18 18 17 16 16 15 14 13 13 13 12 10 10 10 10 10 10 10 10 10 10 9 8 8 8 8 7 7 8 7 7 6 6 7 6 6 6 6 6 6 7 7 8 9 9 10 11 11 11 12 13 13 14 14 15 15 16 18 16 13 14 14 16 17 16 17 16 16 16 16 17 17
19 18 18 18 17 17 17 18 19 19 20 20 20 20 19 19 19 19 18 17 17 16 15 15 15 14 13 11 10 10 11 10 10 10 10 9 10 10 10 10 10 10 8 8 8 9 9 8 8 8 7 7 8 7 7 8 9 9 10 10 10 12 13 12 11 12 13 14 14 15 17 17 18 18 15 12 14 14 16 17 16 17 17 17 18 18 18 18
21 20 20 19 18 18 17 18 19 19 20 21 21 21 20 19 19 19 19 18 18 17 17 17 16 15 14 13 12 12 12 11 11 11 10 10 10 11 11 12 12 11 10 9 10 10 10 10 10 9 9 10 9 8 7 8 8 9 11 11 10 13 14 13 11 11 13 14 14 15 17 18 17 16 13 12 13 13 14 15 16 16 17 18 19 19 19 18
23 23 22 20 19 18 18 18 18 19 19 20 20 20 20 20 20 20 20 19 19 19 19 19 18 17 16 15 14 14 13 13 13 12 12 11 11 11 12 13 13 12 11 11 11 12 12 12 12 11 11 12 10 10 9 9 10 11 13 13 12 14 15 12 11 11 12 12 13 13 17 17 14 14 13 13 14 14 14 14 14 15 15 17 19 19 20 19
25 24 24 23 21 20 19 18 17 18 18 18 19 19 20 20 20 20 20 21 21 21 21 20 20 19 18 17 16 15 14 14 14 13 13 13 13 13 13 13 13 13 12 12 13 13 14 14 14 13 13 13 12 12 12 12 13 13 14 13 12 13 14 11 10 10 10 12 12 12 18 18 15 14 14 14 15 15 16 16 16 16 16 17 18 19 20 20
28 27 26 24 23 22 20 19 18 17 17 18 18 19 19 20 21 21 21 22 22 22 22 23 22 22 21 19 18 17 16 15 14 14 14 14 14 13 14 14 14 14 14 14 14 15 15 15 16 15 14 14 13 13 13 13 14 14 14 12 12 12 12 12 10 9 10 11 12 12 16 18 16 16 16 16 16 16 16 17 17 17 17 18 19 20 20 21
30 29 28 27 25 24 23 21 20 19 18 18 18 19 19 20 21 21 22 22 23 24 24 24 24 24 22 21 21 20 18 16 16 16 16 15 15 14 15 15 15 15 15 15 15 16 16 16 17 17 16 16 15 16 14 14 14 15 15 13 11 11 11 11 10 9 10 12 13 14 17 19 18 17 17 17 17 17 18 19 20 21 21 21 22 22 22 22
32 31 30 29 27 26 25 24 23 21 20 20 20 19 20 21 21 22 23 23 24 24 25 25 25 25 24 22 21 19 17 16 17 17 17 17 16 16 16 16 15 16 16 17 17 17 17 17 18 18 18 17 17 18 14 13 14 14 12 10 8 9 9 10 11 11 12 13 15 17 21 23 20 18 19 19 20 22 22 23 24 25 24 25 25 25 25 24
35 33 32 31 30 28 27 26 25 24 24 23 22 21 21 21 22 23 24 24 25 25 26 26 26 25 25 23 22 19 17 17 17 17 17 17 17 16 16 16 16 17 17 18 18 18 19 19 19 19 19 19 19 19 15 13 14 11 9 9 8 9 10 10 11 11 12 15 17 19 24 27 25 24 25 24 24 26 26 26 26 27 27 27 27 26 26 26
37 36 35 34 32 31 30 29 27 27 27 25 24 23 23 23 24 24 25 26 26 26 25 25 26 26 26 23 21 20 19 19 18 18 17 17 17 16 16 17 17 18 18 18 19 19 20 21 21 21 20 19 20 19 16 14 14 12 12 13 12 11 12 11 11 13 15 19 21 24 28 31 29 28 28 27 27 28 27 27 28 27 27 27 27 26 26 26
39 38 37 36 35 34 33 31 30 29 29 28 27 26 26 26 26 26 26 27 27 26 26 27 27 27 27 26 24 22 22 21 19 18 18 18 17 17 17 17 17 18 18 18 20 21 22 23 25 23 20 19 19 19 17 15 14 14 15 16 16 17 18 16 16 19 22 25 27 27 29 31 31 30 29 29 29 30 29 29 29 29 29 28 28 28 28 27
40 40 39 38 36 35 35 34 33 32 32 31 30 29 29 28 27 27 27 27 27 27 28 30 30 31 31 30 28 26 26 26 23 22 22 20 18 18 17 17 17 17 17 18 21 21 23 27 26 21 18 19 19 18 17 15 15 15 15 16 18 20 21 20 21 23 24 26 28 27 29 32 33 32 30 30 32 33 32 31 31 31 31 31 31 31 31 30
40 41 40 39 39 37 36 35 35 35 35 34 32 31 30 29 28 28 28 29 29 29 29 30 31 34 34 33 31 31 30 29 27 26 25 23 21 20 20 19 18 16 16 20 22 22 25 28 24 18 18 20 19 18 16 14 14 14 15 18 20 21 21 22 22 22 22 24 27 27 30 34 34 34 34 34 37 36 34 33 33 33 34 33 32 31 31 32
39 41 41 41 41 39 38 37 36 37 36 35 33 31 31 31 30 29 29 31 32 32 32 32 33 34 35 35 34 34 34 32 30 29 28 27 25 23 23 22 20 18 19 21 22 23 26 24 17 14 15 17 19 18 16 15 17 17 18 21 23 22 22 22 22 21 20 22 25 28 33 39 39 39 37 35 34 33 31 30 29 30 31 28 26 26 27 28
38 39 40 41 41 41 41 39 39 39 37 36 33 32 32 31 30 30 29 31 35 37 35 34 34 36 37 35 35 34 34 34 33 32 32 30 27 26 26 23 22 23 23 23 24 26 28 23 18 17 15 16 16 16 16 18 19 20 22 24 24 23 21 22 22 20 21 23 25 29 34 41 39 34 33 30 27 27 26 27 27 27 26 25 26 27 26 24
37 37 38 39 39 41 41 42 44 40 38 36 33 32 31 30 30 30 29 30 37 41 38 38 39 40 40 37 37 36 35 37 37 35 34 32 29 29 27 25 25 27 24 23 25 30 31 25 22 23 21 20 21 20 19 18 20 22 23 24 23 22 21 21 19 19 22 23 23 24 21 26 32 31 33 34 32 31 31 32 32 30 30 30 30 30 27 25
38 37 37 37 38 39 40 44 43 38 39 36 33 32 30 31 29 28 28 26 37 46 42 41 40 40 42 41 40 37 34 40 40 37 35 33 31 30 28 29 29 28 24 23 25 31 33 27 24 24 22 23 24 25 23 21 21 23 25 25 22 22 21 21 19 18 19 17 19 20 14 20 38 44 40 38 36 34 32 32 33 33 33 33 30 29 28 27
45 40 38 36 37 38 40 42 37 36 38 33 31 30 28 29 26 26 24 15 28 45 43 42 42 40 41 40 39 35 35 41 39 36 38 36 34 32 32 33 32 29 26 22 25 29 30 26 25 25 23 24 26 26 25 23 23 24 25 24 22 22 21 20 21 20 20 21 21 23 21 24 40 49 44 39 37 34 33 32 31 30 29 28 26 26 27 28
55 49 42 39 37 37 38 38 35 35 33 28 29 27 26 27 23 23 16 3 17 32 29 33 39 40 40 36 34 33 37 41 36 34 37 35 34 34 35 36 34 32 28 26 30 31 28 26 24 24 23 24 25 24 23 23 23 24 24 23 22 22 20 20 21 21 23 23 21 23 23 18 30 45 42 37 38 36 33 30 25 22 21 22 23 23 25 27
57 55 49 43 41 40 39 38 37 33 29 26 25 24 24 22 20 18 8 5 22 29 24 28 31 32 34 34 33 34 37 39 35 33 33 30 31 33 35 35 34 33 31 31 35 33 28 27 26 25 26 26 25 22 21 22 23 24 23 23 22 20 20 19 20 22 21 19 20 26 25 16 23 37 34 30 34 33 29 27 23 20 18 18 19 20 23 25
54 57 54 49 46 44 43 42 38 32 29 27 23 24 23 20 22 17 7 13 28 26 24 28 28 28 28 29 32 34 36 37 36 34 31 30 31 31 32 31 30 32 32 33 35 34 32 31 29 28 28 27 26 23 23 23 23 24 23 21 20 19 20 20 20 21 15 13 23 31 31 23 14 15 18 22 28 30 30 30 27 23 19 17 17 18 20 23
50 54 57 57 54 49 47 45 40 34 32 29 26 25 23 23 25 17 9 28 34 28 28 26 26 30 29 30 32 31 33 35 35 34 33 33 32 31 32 31 30 29 30 33 34 34 35 34 33 33 33 30 28 26 26 26 25 25 23 22 18 14 13 14 15 13 5 8 21 24 22 23 19 14 17 24 30 31 30 29 26 23 20 18 17 17 18 20
47 49 53 58 58 54 53 48 41 36 34 33 29 28 29 26 23 21 25 33 26 25 31 28 29 32 29 29 30 29 31 31 34 35 34 34 34 36 35 35 34 29 28 34 35 34 36 38 36 33 34 33 30 28 27 28 28 26 24 22 15 6 4 6 4 4 7 11 16 12 8 18 30 33 33 32 31 26 23 25 25 22 20 18 18 19 19 20
45 44 46 53 57 58 57 51 46 42 39 36 31 33 35 24 20 34 44 37 19 13 17 20 28 31 28 28 29 28 29 30 32 33 33 34 34 36 37 37 38 33 30 30 31 32 31 32 36 37 36 37 36 34 31 29 29 29 29 26 17 5 1 3 3 3 8 12 14 14 12 16 27 34 34 30 27 22 23 27 26 23 21 20 20 21 21 21
45 43 42 45 50 54 55 53 51 49 47 44 37 38 37 25 27 42 49 48 35 18 9 11 18 24 27 30 30 30 30 31 32 31 31 34 35 38 38 38 38 38 35 29 26 28 23 21 29 32 30 31 33 34 35 34 31 30 30 27 23 16 8 5 4 4 4 5 7 11 10 10 15 24 30 29 30 32 33 30 26 26 26 24 23 23 23 22
43 45 45 43 43 47 51 52 51 48 48 48 43 45 41 32 39 49 51 55 49 32 18 10 12 20 27 28 29 30 31 32 32 32 33 35 37 38 37 37 38 38 38 32 25 24 23 23 26 24 21 18 15 17 25 31 30 27 25 25 26 26 21 13 7 8 7 6 4 11 15 20 26 35 39 37 38 38 34 31 28 27 26 25 24 22 23 22
40 44 47 47 47 47 47 48 49 49 47 43 44 49 48 46 50 55 53 50 49 45 32 16 15 23 28 30 31 31 32 32 30 31 35 36 37 39 37 37 37 38 39 36 30 23 20 23 25 23 23 20 14 13 18 24 24 21 24 29 28 25 24 19 12 10 9 8 7 12 21 31 35 39 39 33 31 29 26 27 26 23 22 23 22 21 22 22
39 42 46 48 48 48 46 45 48 50 47 42 47 52 53 55 57 57 53 44 41 45 42 29 25 26 28 32 34 33 33 33 31 31 34 34 35 39 40 38 37 37 37 37 36 31 22 19 19 20 20 20 20 19 19 23 23 21 22 25 24 21 20 17 7 5 3 5 7 12 23 31 27 26 29 27 25 25 24 24 23 22 21 19 18 19 21 21
40 42 48 49 48 48 48 48 50 50 45 43 50 52 52 55 56 56 56 49 39 40 44 41 34 29 30 32 34 34 34 33 33 32 32 32 32 36 38 38 37 37 36 35 35 33 27 20 17 20 19 16 19 20 20 23 25 25 22 20 19 15 14 16 10 3 2 3 5 9 20 29 29 30 34 32 27 24 21 19 20 19 17 16 15 17 21 22
41 42 46 51 51 49 47 49 53 52 47 48 52 53 53 55 54 54 57 51 38 35 43 48 42 35 34 35 35 34 35 35 36 35 34 34 36 38 37 35 35 34 35 37 35 32 29 22 16 19 21 18 20 24 24 25 26 28 26 22 20 15 12 17 17 8 4 3 5 6 9 17 28 33 29 22 18 16 15 17 20 18 17 17 14 15 21 22
41 41 44 49 52 49 45 48 56 55 52 55 55 54 54 56 55 54 57 53 43 39 43 49 46 39 37 37 37 37 37 37 38 38 38 38 39 40 36 32 31 29 28 33 35 33 32 27 18 17 20 22 26 27 27 27 28 31 31 26 26 22 16 15 18 18 12 4 2 4 6 14 20 17 11 11 13 15 16 20 23 21 18 17 14 15 21 22
41 41 45 47 48 46 44 49 58 57 55 57 57 58 58 57 55 53 56 56 51 44 41 42 43 43 42 40 38 39 39 39 40 40 41 42 42 39 34 32 30 27 24 28 33 33 32 31 27 24 25 29 30 29 28 28 29 31 31 31 31 29 23 13 11 20 23 16 11 5 9 22 24 14 14 22 22 19 20 20 23 23 20 18 15 16 19 22
42 44 47 45 44 43 43 52 59 56 57 59 60 61 60 57 54 51 51 52 53 49 40 34 36 40 42 43 41 39 38 38 41 42 42 44 43 40 35 32 30 28 27 28 29 30 29 30 31 30 30 30 28 26 26 26 29 31 32 31 29 29 31 24 13 13 19 25 26 14 11 29 33 23 25 31 28 25 22 19 21 24 23 19 15 16 19 21
43 48 47 43 41 40 41 51 59 58 59 62 61 60 58 55 54 51 46 45 50 53 48 39 36 36 38 40 39 37 36 36 39 43 43 43 44 42 38 36 31 28 28 27 27 28 28 29 29 26 26 27 25 26 28 26 27 31 33 32 30 32 36 33 27 20 17 24 25 10 9 31 37 31 30 30 29 26 20 18 21 24 24 19 15 16 18 21
41 47 48 43 40 41 43 49 57 60 60 60 60 59 57 55 52 48 46 48 49 52 55 53 46 39 38 37 36 37 38 35 36 41 43 43 44 41 38 39 36 33 34 33 31 29 27 29 27 17 11 14 16 18 23 26 26 30 33 33 35 37 35 34 35 29 25 33 27 11 15 39 42 35 32 27 25 25 20 20 22 22 22 19 16 18 20 23
37 41 45 42 40 44 46 45 50 58 61 60 59 59 58 57 53 47 45 47 47 46 51 57 53 43 37 36 35 36 38 38 37 37 38 40 40 38 37 39 40 40 41 37 34 32 31 34 33 23 12 11 14 14 18 23 27 32 36 36 37 39 37 37 35 30 29 32 27 23 34 50 47 38 35 31 26 25 24 23 24 23 24 23 22 23 24 25
35 38 41 39 39 45 48 43 43 51 57 59 60 59 59 59 57 51 44 40 43 45 46 49 50 43 35 34 35 36 38 39 36 32 32 34 35 35 35 36 39 41 40 37 34 32 32 35 37 35 31 31 35 33 27 24 27 33 36 36 37 39 40 39 36 38 37 26 25 42 49 50 52 47 43 42 34 29 29 29 29 28 27 27 28 29 27 25
38 40 42 40 38 44 49 48 45 46 49 55 59 60 60 60 58 53 47 41 40 42 44 45 46 44 41 40 39 39 40 37 32 32 33 32 31 30 31 33 35 37 36 35 34 32 33 33 34 37 40 44 49 47 41 38 38 40 40 37 36 36 38 43 45 48 44 26 30 52 47 43 58 57 46 48 43 37 38 38 36 33 29 29 31 32 30 27
40 41 43 42 40 42 49 51 50 48 47 49 55 58 59 60 58 54 52 50 45 41 41 42 45 48 50 48 43 41 42 38 34 36 36 34 32 29 28 29 30 32 34 33 34 35 35 35 37 40 42 47 50 47 46 46 45 44 41 40 39 35 37 47 51 52 46 35 41 57 48 48 63 57 47 50 46 43 45 43 38 35 33 33 33 33 32 30
42 42 43 44 45 45 47 48 46 47 50 50 50 54 57 58 59 60 57 52 49 46 43 42 46 50 52 53 49 44 44 43 43 45 43 39 36 33 31 31 31 33 34 34 36 37 37 39 40 41 43 47 49 47 46 46 44 43 42 40 42 43 47 52 51 48 46 45 54 60 53 57 64 57 52 54 50 48 49 46 42 41 39 37 35 35 34 32
43 44 43 43 45 47 49 47 42 41 47 51 52 52 53 55 57 60 59 54 51 53 51 50 50 48 45 49 51 50 51 51 53 54 51 46 43 42 40 37 36 36 35 37 38 38 40 40 39 39 41 46 51 49 45 44 44 44 44 44 49 52 52 50 48 45 46 50 57 57 55 63 67 61 57 55 52 51 50 49 48 46 43 41 38 38 38 35
44 44 42 39 40 44 49 51 47 42 43 49 53 53 53 54 55 57 59 60 59 56 54 55 55 50 45 44 48 50 52 52 51 51 50 47 47 48 46 43 41 39 38 39 40 40 42 41 40 37 35 44 54 47 41 44 43 41 47 55 59 57 50 46 48 49 50 52 53 52 56 64 65 60 57 55 53 52 51 50 49 47 45 44 42 41 39 37
46 44 41 38 37 40 45 51 51 46 43 43 47 51 53 54 54 53 52 54 57 58 57 56 56 53 51 50 49 50 50 49 47 46 46 46 45 46 44 43 43 42 40 40 41 43 43 43 44 39 32 43 53 41 35 36 27 30 51 63 63 60 54 52 55 55 54 53 51 53 59 62 61 59 59 56 53 53 51 49 48 47 46 44 42 40 38 37
Wind_Direction
195 196 196 196 196 195 195 193 192 191 190 188 186 185 183 181 181 182 183 186 189 194 199 204 208 210 211 211 211 213 217 218 220 222 223 226 229 235 236 237 241 243 242 242 245 251 265 268 261 253 241 228 213 202 200 198 191 179 178 169 152 193 215 215 216 232 251 255 246 236 246 255 263 264 251 247 255 261 258 256 268 277 277 288 304 311 312 313
195 194 193 192 192 192 191 191 191 191 190 188 187 186 184 184 184 186 189 193 198 204 209 213 214 213 212 213 213 219 225 225 235 242 237 235 238 241 241 241 241 243 244 246 252 251 257 261 259 247 231 220 200 191 186 174 171 177 183 174 153 202 208 212 230 243 256 265 260 250 262 268 263 257 247 245 255 267 267 261 263 259 257 273 300 313 312 313
194 192 190 188 188 188 189 190 190 190 190 189 189 188 188 188 190 192 197 202 209 215 219 219 215 213 213 216 222 231 236 233 241 248 245 239 238 239 239 239 239 242 246 249 250 246 243 247 255 242 222 228 203 182 173 170 178 184 191 184 171 193 198 209 242 259 270 277 275 268 276 278 266 248 242 253 263 271 270 268 273 257 254 271 298 307 307 308
191 191 190 188 187 187 189 191 191 191 192 191 192 193 194 195 197 201 207 213 219 222 222 219 216 217 221 225 231 240 243 241 241 245 248 244 237 237 238 236 237 239 243 247 248 252 256 255 264 248 212 224 207 168 162 172 185 194 198 192 191 205 204 219 253 266 271 276 276 271 275 278 273 266 257 260 266 273 277 281 287 279 269 281 296 300 302 304
193 193 192 190 190 190 190 192 193 193 194 195 197 199 200 203 207 212 219 224 225 224 222 222 224 229 233 236 240 246 247 248 246 242 243 244 240 238 237 236 235 236 235 239 245 260 270 260 253 245 212 215 194 149 163 176 184 199 204 200 208 218 219 237 257 263 268 272 272 267 273 279 281 280 273 269 268 273 280 284 285 281 280 287 296 301 303 304
197 197 197 196 194 193 194 195 195 196 198 199 201 204 208 212 218 224 228 228 225 224 225 229 233 238 243 244 247 248 241 235 238 236 238 240 238 237 236 236 234 234 234 239 252 264 265 247 240 244 216 207 181 144 161 175 186 205 214 216 226 233 237 254 256 257 264 268 272 272 277 282 284 283 278 275 275 276 279 281 281 283 286 291 295 299 299 301
203 202 202 202 201 200 198 198 199 200 201 202 205 209 215 221 227 232 232 229 226 226 232 237 241 246 249 248 247 247 237 228 230 228 230 232 232 235 235 234 232 235 236 241 252 255 253 247 237 225 205 204 203 171 168 182 204 222 228 223 235 248 252 259 261 261 264 268 272 275 278 280 281 282 281 280 280 279 279 280 281 283 286 287 288 291 293 295
211 210 209 209 209 208 206 205 204 205 206 207 209 214 221 227 231 234 232 228 228 232 237 241 246 248 249 246 246 248 241 233 234 234 233 238 239 238 237 237 235 234 238 246 252 253 255 250 225 220 220 229 240 199 175 205 231 240 249 247 249 261 260 261 266 266 266 269 272 274 276 277 277 277 278 280 282 284 283 282 280 281 282 281 281 282 285 286
219 218 217 216 216 216 215 214 213 213 214 215 217 221 227 232 234 232 229 227 230 235 239 244 247 248 247 245 245 250 247 238 237 238 239 242 243 243 242 239 237 235 239 251 257 255 252 242 228 227 227 233 244 224 200 230 250 250 261 265 261 265 266 265 268 271 270 270 273 274 274 272 273 273 272 275 281 285 283 280 278 279 279 276 276 278 279 280
226 224 223 222 221 222 222 222 223 223 224 225 226 229 233 235 235 231 228 228 231 235 240 244 246 247 247 246 248 252 249 243 241 240 241 241 240 242 241 238 235 235 241 254 258 251 240 235 233 234 234 237 245 244 241 251 260 261 267 271 271 271 270 268 270 272 273 273 275 275 274 273 271 271 276 282 281 279 276 275 275 274 274 273 273 274 275 275
229 229 227 226 224 224 225 226 228 229 231 232 233 235 236 237 235 231 229 230 233 238 241 243 246 247 248 248 251 253 248 247 248 245 245 243 240 239 239 239 236 236 244 251 253 249 242 237 235 239 247 247 247 252 258 263 264 267 272 274 276 276 275 275 275 274 274 275 274 274 274 273 272 275 282 283 275 270 268 268 268 269 269 272 273 273 273 273
230 230 231 229 227 226 226 227 229 231 232 234 236 236 236 236 234 232 232 234 236 239 242 245 246 248 249 248 250 252 249 249 251 252 252 250 245 243 241 240 240 243 247 249 247 247 245 242 240 244 253 253 254 261 264 265 267 273 276 276 276 278 280 281 279 276 276 275 274 277 277 274 276 282 285 279 273 268 266 266 267 268 269 272 274 275 274 273
231 231 232 232 231 229 229 229 230 231 232 232 233 233 234 233 234 233 234 236 238 241 244 247 248 249 251 251 250 251 252 254 255 256 257 255 251 249 246 245 246 248 247 247 247 246 245 246 246 246 251 258 262 264 265 267 272 279 281 282 285 283 282 283 281 276 273 273 274 278 278 278 284 288 284 277 273 270 270 271 271 271 272 274 275 276 277 275
233 233 233 233 233 233 232 232 232 233 233 233 232 231 231 232 233 235 236 238 239 242 245 248 250 252 252 252 251 251 253 254 259 260 259 258 255 252 251 250 249 249 249 248 247 247 247 247 249 249 252 259 264 267 270 272 275 281 285 288 290 286 286 288 285 277 273 272 275 277 277 282 289 288 285 280 275 271 271 272 273 275 276 276 277 277 277 276
235 235 235 235 235 235 236 235 236 236 236 235 235 233 232 233 234 235 237 239 240 243 246 248 251 252 253 253 252 251 251 252 258 261 259 257 256 255 255 253 251 251 250 249 248 249 249 249 251 252 254 258 262 266 270 273 277 282 287 293 292 289 293 294 289 281 277 276 276 275 276 284 292 291 290 286 281 277 276 277 279 281 280 278 279 277 275 274
238 237 237 237 237 237 238 239 239 239 240 239 238 236 235 235 236 236 238 239 241 243 245 248 250 252 254 254 251 250 251 254 256 257 259 258 257 258 256 255 254 253 251 251 252 252 252 253 254 254 254 256 260 263 268 273 276 282 285 290 295 296 296 293 292 283 275 275 276 275 276 285 293 295 295 291 288 285 281 281 283 282 281 279 277 276 274 272
241 241 240 239 239 239 240 240 240 241 242 242 241 240 239 238 238 239 239 240 242 244 247 249 251 253 254 251 250 252 253 254 255 255 257 258 258 258 258 258 257 255 253 252 252 254 256 255 256 257 256 256 258 261 265 272 279 285 283 288 297 290 283 282 286 285 278 275 277 277 279 286 292 293 293 292 288 284 281 282 282 281 280 278 277 276 275 274
243 243 243 243 242 241 242 242 242 242 243 243 243 243 243 242 242 242 242 242 243 245 247 249 251 254 254 252 252 253 252 251 253 255 256 257 258 258 258 259 258 256 255 254 254 255 257 257 256 257 256 256 258 261 266 274 285 288 277 286 293 274 268 270 272 274 273 274 274 274 279 287 292 291 291 289 285 283 282 281 278 277 277 277 277 278 278 278
244 244 244 245 244 244 243 243 243 243 244 244 244 245 246 246 245 245 245 244 245 246 250 252 252 254 254 254 255 254 252 252 253 254 256 256 258 259 259 259 257 258 256 256 258 257 257 258 256 255 256 259 263 270 275 276 279 276 266 274 277 267 257 248 252 262 270 276 276 275 280 287 290 289 289 288 287 285 283 281 280 279 279 279 279 280 280 280
243 244 245 245 245 245 245 245 244 244 244 244 244 245 246 247 248 249 248 249 249 250 253 254 254 254 256 255 254 255 255 255 254 254 256 256 258 261 261 261 259 260 261 260 260 259 259 259 257 257 260 266 271 276 279 276 272 269 266 262 259 261 259 252 257 268 276 280 280 282 284 286 287 288 289 289 288 285 283 284 284 284 283 283 283 283 281 278
242 243 244 245 245 245 246 246 246 245 245 245 245 245 247 248 251 253 253 253 252 251 251 254 255 255 255 256 255 256 256 256 255 256 258 258 260 261 261 262 262 263 265 263 259 258 259 259 259 262 266 269 271 274 276 273 269 270 270 262 255 260 266 268 271 275 280 281 282 285 284 283 285 287 287 286 284 284 285 285 284 285 285 284 283 281 280 278
242 243 243 244 245 245 245 245 246 246 246 246 246 247 249 250 252 254 256 256 253 251 251 252 253 254 254 255 256 255 255 256 257 257 259 259 258 261 264 263 264 265 264 261 260 261 261 262 266 268 267 265 265 268 271 265 261 262 264 262 260 265 275 279 281 283 284 283 284 286 282 281 284 284 283 283 282 284 285 283 282 281 280 280 280 280 279 278
242 242 243 244 244 245 245 245 245 245 246 246 247 249 250 252 253 255 259 261 258 253 251 251 252 255 255 255 255 255 256 257 258 258 258 258 259 262 262 263 265 264 259 259 261 262 262 266 271 267 261 261 261 260 253 246 249 251 253 259 264 271 280 283 286 290 287 284 284 285 283 283 285 285 284 285 285 285 284 282 279 276 275 278 280 279 277 276
242 242 242 242 243 245 245 246 246 245 246 247 248 250 252 254 256 259 261 265 264 256 252 253 253 254 253 254 254 254 255 255 255 255 255 256 257 258 260 263 264 260 257 259 262 262 262 265 266 264 259 257 259 258 248 241 245 250 254 258 265 272 277 282 288 289 284 281 281 286 287 286 288 289 288 289 287 286 286 284 281 278 278 279 279 278 277 277
243 242 242 241 241 242 243 245 245 245 247 248 249 250 253 256 257 261 264 269 269 261 254 252 252 253 253 253 253 252 254 254 252 252 253 254 255 256 260 260 259 259 259 259 262 264 265 265 264 264 261 257 259 261 258 253 254 258 260 261 267 273 277 282 285 281 279 278 280 286 290 288 290 289 289 290 287 286 287 286 285 285 282 281 283 283 279 275
243 243 243 241 240 240 241 243 243 245 247 247 249 250 252 255 257 260 262 270 271 264 258 254 251 251 251 249 249 250 253 254 252 251 252 252 252 253 255 256 256 258 259 261 264 266 266 265 262 260 259 259 260 261 260 259 259 260 265 268 270 273 276 279 277 272 272 273 279 281 281 287 290 289 288 290 290 289 287 287 288 288 286 286 286 283 277 273
243 243 243 242 242 241 241 242 243 244 245 246 247 248 250 252 254 256 258 273 272 263 259 255 250 249 249 248 249 245 247 251 250 249 250 248 249 249 251 253 254 255 256 257 255 258 264 265 261 260 260 258 257 259 262 261 258 259 267 274 274 275 278 276 273 269 266 270 273 273 274 282 285 287 291 293 294 294 291 292 294 293 291 288 283 277 274 272
240 242 242 242 242 243 243 243 242 240 243 244 243 244 246 247 247 249 245 250 266 261 259 253 249 249 248 248 248 242 244 251 250 247 248 247 247 248 250 252 253 256 256 253 250 256 265 265 264 265 263 260 259 262 265 262 257 259 268 273 272 275 274 270 269 265 268 274 270 267 272 273 275 282 291 295 293 295 297 300 304 302 297 288 278 272 270 269
237 238 240 243 243 243 244 242 239 238 240 239 240 240 238 239 237 231 213 226 252 255 254 249 246 246 245 242 242 240 242 247 247 246 248 247 246 245 247 250 252 254 253 251 254 258 261 260 262 264 260 259 262 263 261 259 257 260 266 269 270 272 268 265 265 264 269 272 262 265 267 261 275 284 288 292 293 296 302 305 309 308 303 293 282 274 269 265
236 236 236 241 243 241 243 242 240 240 241 240 239 237 232 228 218 198 160 236 245 250 247 244 243 243 242 237 234 235 239 242 244 244 242 241 241 241 243 245 247 249 249 249 252 252 254 256 255 254 255 256 257 256 255 256 256 258 261 263 265 266 263 262 264 266 272 266 259 267 267 257 270 292 286 288 295 299 304 306 309 308 304 298 290 282 275 267
237 238 235 237 240 242 243 242 242 243 244 240 235 231 223 215 205 181 205 240 243 250 242 235 238 239 240 238 234 234 235 238 240 238 237 236 235 235 235 234 234 238 242 242 245 248 250 250 248 248 250 250 250 251 253 254 253 253 254 254 256 261 266 264 259 255 251 261 267 274 270 249 237 254 274 284 292 298 303 307 309 308 305 298 290 283 278 271
233 238 239 236 237 240 241 241 243 245 243 236 231 226 213 201 196 198 224 237 246 253 241 232 236 236 238 240 240 241 238 238 239 236 237 237 236 237 237 236 234 230 234 236 239 245 249 248 247 247 248 249 249 247 246 248 247 247 244 238 237 246 291 266 234 226 229 249 267 269 247 236 243 260 275 281 288 295 301 305 306 304 304 302 294 284 275 269
231 236 242 241 236 235 237 241 243 244 243 234 223 214 203 191 201 216 223 227 232 248 239 233 237 237 238 235 232 234 234 236 239 236 237 236 237 241 240 241 239 233 238 243 238 237 245 249 246 244 248 251 249 244 242 244 243 242 239 232 222 194 42 261 227 250 252 254 259 245 235 243 254 271 282 284 291 297 297 300 301 297 296 298 296 289 278 269
231 230 236 244 242 237 236 239 242 242 241 236 217 199 194 197 217 223 227 228 227 236 243 220 222 225 229 231 232 230 226 228 232 231 232 231 231 234 234 236 237 236 240 245 241 234 235 247 247 246 251 254 254 252 253 255 250 248 249 243 232 220 216 229 211 209 249 280 244 210 213 235 251 274 285 288 293 295 294 293 292 292 293 292 291 288 281 273
233 229 231 236 238 238 235 235 238 237 236 230 209 192 193 204 218 224 230 230 225 228 236 214 199 209 214 221 228 228 224 225 226 224 227 229 230 233 234 234 235 234 233 233 238 235 233 248 254 251 252 252 251 251 250 247 245 246 243 235 235 236 236 239 243 245 271 309 243 201 226 251 262 274 279 284 288 291 292 291 288 291 294 292 288 284 280 273
233 231 231 231 232 237 237 234 236 237 235 224 200 192 200 210 219 225 229 231 226 225 227 216 202 205 205 209 216 219 220 223 223 220 223 228 232 235 235 236 235 234 234 232 231 230 230 245 253 247 244 241 232 232 235 233 232 229 223 225 234 239 236 238 255 273 282 292 258 225 246 262 271 278 279 280 285 289 295 298 295 293 292 290 284 279 276 269
231 229 231 232 231 234 236 236 236 236 233 219 200 200 209 218 226 229 229 232 230 227 227 223 216 210 204 204 209 212 213 216 219 221 224 225 231 235 234 235 235 234 239 237 234 236 239 246 252 246 242 239 234 233 230 226 222 216 219 231 235 233 231 229 248 307 280 271 262 233 251 265 267 273 281 282 284 292 298 300 298 294 291 291 285 278 273 265
231 230 231 232 232 233 234 234 234 234 228 212 204 209 218 227 235 235 232 232 231 230 230 229 227 222 216 210 210 210 209 211 215 218 223 226 234 241 236 235 236 234 237 236 231 235 241 247 254 246 239 233 229 228 220 217 218 220 229 233 219 215 216 208 214 269 210 242 285 245 251 261 258 262 279 286 288 296 298 295 298 297 296 299 290 276 271 265
231 234 232 231 233 235 235 233 233 233 222 203 202 214 225 235 241 239 233 228 224 227 231 232 232 226 224 223 218 213 211 215 219 219 223 228 237 245 242 238 240 236 234 234 231 232 234 240 246 239 233 226 221 220 215 214 215 216 223 224 215 215 210 206 213 219 185 210 274 266 251 258 265 272 282 290 295 301 298 295 299 297 295 300 290 271 268 265
232 239 236 232 233 235 238 236 229 224 215 206 212 225 234 240 244 242 235 227 220 224 231 234 233 227 227 229 225 222 218 221 226 226 228 233 238 244 242 236 237 236 233 234 236 233 228 231 240 235 226 219 219 225 230 236 234 223 219 216 214 214 209 217 230 228 225 223 229 272 269 261 272 283 287 295 302 299 292 293 297 294 292 297 288 267 264 264
230 238 238 233 232 235 238 233 222 212 208 211 223 234 236 238 240 237 233 227 219 219 227 233 233 230 230 229 227 227 223 223 226 227 230 234 234 237 239 236 238 237 226 222 227 227 222 227 237 233 225 225 232 241 246 250 251 246 240 234 228 225 218 219 240 232 231 237 235 242 281 274 273 269 273 285 288 288 288 287 292 294 292 293 286 264 259 263
228 234 237 235 232 234 235 229 221 212 207 214 226 231 229 230 233 232 231 227 219 215 218 226 230 231 232 231 231 228 223 224 227 226 228 233 234 236 240 243 244 237 227 223 228 230 225 227 233 233 236 243 247 247 244 242 244 243 243 241 239 238 230 222 227 229 227 239 246 248 275 276 273 270 277 283 284 287 288 277 282 293 295 294 282 258 254 260
230 230 234 236 234 234 234 228 221 213 213 223 228 227 227 229 232 232 230 227 222 217 215 218 223 226 229 231 232 230 225 224 229 231 232 234 237 239 242 245 243 233 230 231 231 227 219 220 227 233 243 249 248 244 240 236 231 227 231 235 234 238 238 233 236 241 242 243 239 228 261 266 270 277 282 283 284 285 280 265 273 288 293 290 275 261 258 258
234 231 234 237 238 238 235 227 219 211 216 226 226 222 226 230 231 232 231 230 228 222 218 219 222 225 227 228 229 232 230 227 230 234 235 237 239 239 240 242 240 235 238 239 235 230 219 214 218 222 242 250 243 237 231 225 224 228 233 235 234 237 238 236 235 237 250 252 238 210 253 262 267 277 280 281 283 279 270 265 271 279 285 281 267 267 268 260
237 235 236 237 239 241 241 236 227 220 219 222 223 224 225 225 227 231 232 232 231 226 222 222 224 226 230 229 229 232 234 234 234 234 235 237 240 239 236 237 239 242 246 248 247 246 238 227 222 216 215 232 237 231 226 227 231 234 237 237 237 237 234 234 234 230 239 249 238 227 249 261 266 269 272 275 275 272 271 271 271 273 278 274 264 271 277 266
233 234 235 233 228 231 239 243 235 228 226 223 222 225 226 226 227 229 230 231 230 227 226 226 224 225 228 226 223 223 227 232 235 234 234 235 236 237 234 234 239 243 245 246 246 243 236 230 229 229 231 240 247 250 251 249 242 241 246 248 245 243 239 235 233 232 234 236 242 245 251 262 268 266 268 271 268 268 272 274 274 274 273 271 269 276 281 270
229 232 231 230 223 220 228 237 236 232 230 226 224 225 226 228 229 227 225 227 229 227 227 227 224 221 222 221 219 218 220 224 229 233 237 237 235 235 234 233 235 238 240 242 239 233 225 223 230 237 241 248 254 257 258 258 255 254 256 254 249 248 244 234 231 238 238 227 248 257 254 261 270 270 270 272 272 272 275 278 280 278 275 271 269 272 273 266
226 231 232 231 229 223 221 226 234 237 234 228 227 229 229 229 228 227 227 227 228 226 225 226 225 223 223 221 220 222 221 223 228 231 234 237 234 230 228 228 229 232 235 235 232 229 228 231 237 241 245 250 254 256 255 256 258 257 255 253 251 251 245 238 239 244 238 228 251 265 262 262 271 274 273 276 277 275 277 280 280 278 276 271 264 262 264 262
224 230 232 231 232 231 226 224 228 235 237 234 231 230 230 230 230 230 229 227 225 225 223 225 229 229 226 223 224 228 227 226 229 230 231 235 233 229 226 223 223 226 229 229 228 227 230 236 240 241 245 251 254 255 253 252 254 254 251 252 253 252 250 248 247 247 242 242 257 266 265 266 271 272 272 275 276 274 277 278 276 275 275 272 266 262 264 265
226 228 229 228 230 232 233 233 231 231 233 233 231 229 230 232 233 232 229 225 225 226 223 225 230 231 227 223 224 228 230 231 233 235 235 234 233 234 232 228 227 228 227 227 226 225 227 233 238 239 242 250 253 253 250 247 248 250 252 254 255 254 250 246 245 246 244 247 257 262 262 267 271 271 272 274 272 271 274 276 276 276 275 273 269 266 268 268
226 231 231 228 229 231 232 236 236 233 228 226 226 229 230 231 234 234 231 229 230 229 227 230 234 231 227 225 223 228 235 236 237 240 240 236 235 237 237 236 236 234 230 229 228 227 227 230 236 236 237 248 254 252 246 245 245 245 249 253 252 249 245 242 246 248 245 248 255 255 255 265 274 275 275 276 273 273 275 277 278 278 276 274 272 269 269 266
226 233 236 232 231 231 231 233 234 234 232 226 224 226 227 230 232 231 229 230 232 232 232 236 238 234 229 227 228 234 240 237 235 238 239 238 239 240 240 240 241 240 236 233 231 232 231 232 236 234 233 247 255 253 246 245 241 238 247 253 254 250 247 247 249 252 251 251 252 252 259 274 283 279 276 278 278 278 279 281 281 281 279 277 275 272 269 264
Height
3147 3148 3149 3151 3152 3153 3155 3156 3157 3158 3159 3160 3161 3163 3164 3165 3166 3167 3168 3169 3170 3171 3172 3173 3174 3174 3175 3176 3176 3177 3177 3177 3178 3178 3179 3179 3180 3180 3181 3181 3182 3182 3182 3183 3183 3184 3184 3185 3185 3185 3186 3187 3187 3188 3188 3189 3190 3190 3191 3191 3192 3192 3192 3193 3194 3194 3195 3195 3195 3196 3196 3197 3198 3198 3199 3199 3199 3199 3200 3200 3200 3201 3201 3200 3200 3201 3201 3201
3146 3147 3148 3150 3151 3153 3154 3155 3156 3158 3159 3160 3161 3162 3163 3164 3166 3167 3168 3169 3170 3171 3172 3172 3173 3174 3175 3175 3176 3176 3176 3177 3177 3177 3178 3178 3179 3180 3180 3180 3181 3181 3182 3182 3183 3183 3184 3184 3184 3185 3185 3186 3186 3187 3188 3188 3189 3190 3190 3190 3191 3191 3192 3193 3193 3194 3195 3195 3195 3196 3195 3196 3197 3198 3198 3198 3198 3198 3198 3199 3200 3200 3200 3200 3200 3200 3200 3200
3145 3147 3148 3149 3150 3152 3153 3155 3156 3157 3159 3160 3161 3162 3163 3164 3165 3166 3167 3168 3169 3170 3171 3172 3173 3173 3174 3175 3175 3176 3176 3176 3177 3177 3177 3178 3178 3179 3179 3180 3180 3181 3181 3182 3182 3183 3183 3184 3184 3184 3185 3185 3186 3186 3187 3188 3188 3189 3189 3190 3191 3191 3192 3193 3193 3193 3194 3195 3195 3195 3195 3195 3196 3197 3198 3198 3197 3197 3197 3198 3199 3199 3199 3199 3199 3199 3199 3199
3145 3146 3147 3149 3150 3151 3153 3154 3155 3157 3158 3160 3161 3162 3163 3164 3165 3166 3167 3168 3169 3170 3170 3171 3172 3173 3173 3174 3174 3175 3175 3176 3176 3176 3177 3177 3178 3178 3179 3179 3180 3180 3181 3181 3182 3183 3183 3183 3183 3184 3184 3184 3185 3186 3187 3187 3188 3188 3189 3190 3191 3191 3192 3193 3193 3193 3193 3194 3195 3195 3194 3194 3195 3196 3197 3197 3197 3196 3196 3197 3198 3198 3198 3198 3198 3198 3198 3199
3144 3146 3147 3148 3149 3150 3152 3153 3155 3156 3158 3159 3160 3161 3162 3163 3165 3166 3167 3168 3168 3169 3170 3170 3171 3172 3172 3173 3173 3174 3174 3175 3175 3176 3176 3176 3177 3178 3178 3179 3179 3180 3180 3181 3182 3182 3182 3183 3183 3183 3183 3183 3184 3185 3186 3187 3188 3188 3189 3190 3190 3191 3192 3193 3193 3193 3193 3193 3194 3194 3194 3194 3194 3195 3196 3196 3196 3196 3196 3196 3196 3197 3197 3197 3197 3197 3197 3197
3144 3145 3146 3148 3149 3150 3151 3152 3154 3155 3156 3158 3159 3161 3162 3163 3164 3165 3166 3167 3168 3168 3169 3169 3170 3171 3171 3172 3172 3173 3173 3174 3174 3175 3175 3176 3177 3177 3178 3178 3179 3179 3180 3180 3181 3182 3182 3182 3182 3182 3183 3182 3183 3185 3186 3186 3187 3188 3189 3189 3190 3190 3192 3192 3193 3193 3193 3192 3193 3193 3193 3193 3193 3194 3194 3194 3195 3195 3195 3195 3195 3195 3195 3195 3195 3195 3195 3196
3143 3145 3146 3147 3148 3149 3150 3151 3152 3154 3155 3156 3158 3159 3161 3162 3163 3164 3165 3166 3167 3167 3168 3168 3169 3170 3170 3171 3171 3172 3173 3173 3173 3174 3175 3175 3176 3177 3177 3178 3178 3179 3179 3180 3181 3181 3182 3182 3182 3182 3182 3182 3183 3184 3185 3186 3186 3187 3188 3189 3189 3190 3191 3191 3192 3192 3192 3192 3192 3192 3192 3192 3192 3192 3192 3192 3193 3194 3194 3193 3194 3194 3194 3194 3194 3194 3194 3194
3143 3144 3145 3146 3147 3148 3149 3150 3151 3153 3154 3155 3156 3158 3159 3160 3162 3163 3164 3165 3166 3166 3167 3167 3168 3169 3169 3170 3170 3171 3171 3172 3172 3173 3174 3175 3175 3176 3177 3177 3178 3178 3179 3180 3180 3181 3181 3182 3182 3182 3182 3182 3183 3184 3185 3185 3186 3186 3187 3188 3189 3189 3190 3190 3190 3191 3191 3191 3191 3191 3191 3191 3191 3191 3191 3191 3191 3192 3192 3192 3192 3192 3193 3193 3193 3193 3193 3193
3142 3143 3144 3145 3146 3147 3148 3149 3150 3151 3153 3154 3155 3156 3158 3159 3160 3161 3162 3163 3164 3165 3166 3166 3167 3168 3168 3169 3170 3170 3170 3171 3172 3172 3173 3174 3174 3175 3176 3176 3177 3178 3178 3179 3179 3180 3181 3181 3181 3181 3182 3182 3182 3183 3184 3185 3185 3186 3187 3187 3188 3188 3188 3189 3189 3189 3189 3189 3189 3190 3190 3190 3189 3189 3189 3190 3191 3191 3190 3190 3190 3190 3191 3191 3192 3192 3192 3191
3141 3142 3143 3144 3145 3146 3147 3148 3149 3150 3152 3153 3154 3155 3156 3157 3158 3159 3161 3162 3163 3163 3164 3165 3166 3167 3167 3168 3169 3169 3169 3170 3171 3171 3172 3173 3173 3174 3175 3175 3176 3177 3178 3178 3179 3180 3180 3180 3181 3181 3181 3182 3182 3183 3184 3184 3185 3185 3186 3186 3187 3187 3187 3187 3188 3188 3188 3188 3188 3188 3188 3188 3188 3187 3188 3189 3189 3189 3189 3188 3189 3189 3189 3189 3190 3190 3190 3190
3140 3141 3142 3143 3143 3144 3145 3146 3148 3149 3150 3151 3152 3153 3154 3155 3156 3158 3159 3160 3161 3162 3163 3164 3164 3165 3166 3167 3168 3168 3168 3169 3169 3170 3171 3171 3172 3173 3174 3174 3175 3176 3177 3177 3178 3179 3179 3180 3180 3180 3181 3181 3182 3182 3183 3183 3184 3184 3184 3185 3185 3185 3185 3186 3186 3186 3186 3186 3186 3186 3186 3185 3185 3185 3187 3187 3187 3187 3187 3187 3187 3187 3187 3187 3188 3188 3188 3188
3138 3139 3141 3142 3142 3143 3144 3145 3146 3147 3148 3150 3151 3152 3153 3154 3155 3156 3157 3158 3159 3160 3161 3162 3163 3164 3165 3166 3167 3167 3167 3168 3168 3169 3170 3170 3171 3172 3172 3173 3174 3175 3176 3176 3177 3177 3178 3179 3179 3180 3180 3180 3181 3182 3182 3182 3183 3183 3183 3183 3184 3183 3183 3184 3185 3185 3184 3184 3184 3184 3183 3183 3183 3184 3185 3185 3185 3185 3185 3185 3185 3185 3185 3185 3185 3186 3186 3186
3136 3137 3139 3140 3141 3142 3143 3143 3144 3145 3146 3148 3149 3150 3151 3152 3153 3154 3155 3156 3157 3158 3160 3161 3162 3162 3163 3164 3165 3165 3166 3167 3167 3168 3168 3169 3170 3170 3171 3172 3172 3173 3174 3175 3176 3176 3177 3177 3178 3179 3179 3179 3180 3181 3181 3181 3182 3182 3181 3182 3182 3182 3182 3182 3183 3183 3183 3182 3182 3182 3180 3180 3182 3182 3183 3183 3183 3183 3183 3183 3183 3184 3184 3184 3183 3183 3183 3183
3134 3135 3137 3138 3139 3140 3141 3142 3143 3144 3145 3146 3147 3148 3149 3150 3151 3152 3154 3155 3156 3157 3158 3159 3160 3161 3162 3162 3163 3164 3165 3165 3166 3166 3167 3168 3168 3169 3170 3171 3171 3172 3173 3174 3175 3175 3175 3176 3177 3177 3178 3178 3179 3180 3180 3180 3180 3180 3180 3180 3181 3180 3180 3180 3181 3181 3181 3181 3181 3181 3179 3178 3180 3180 3180 3181 3181 3181 3181 3181 3181 3182 3182 3182 3182 3181 3181 3181
3132 3133 3134 3136 3137 3138 3139 3140 3141 3142 3143 3144 3145 3146 3147 3148 3149 3150 3151 3152 3154 3155 3156 3157 3158 3158 3160 3161 3161 3162 3163 3164 3165 3165 3165 3166 3167 3168 3168 3169 3170 3171 3171 3172 3173 3173 3174 3175 3175 3176 3177 3177 3178 3178 3178 3179 3179 3179 3179 3179 3179 3178 3178 3178 3179 3179 3179 3179 3179 3179 3177 3177 3178 3178 3178 3179 3178 3179 3179 3179 3179 3179 3180 3180 3179 3179 3179 3179
3129 3131 3132 3133 3134 3136 3137 3138 3140 3141 3142 3142 3143 3144 3145 3146 3147 3148 3149 3151 3152 3152 3154 3154 3155 3156 3157 3159 3159 3160 3161 3163 3163 3163 3164 3164 3165 3166 3166 3167 3168 3169 3170 3170 3171 3172 3172 3173 3173 3174 3175 3176 3176 3177 3177 3178 3178 3178 3177 3178 3177 3177 3177 3176 3177 3177 3177 3177 3177 3177 3176 3175 3176 3177 3176 3176 3176 3176 3176 3177 3177 3177 3177 3177 3177 3177 3177 3178
3126 3128 3129 3130 3132 3133 3135 3136 3138 3139 3140 3140 3141 3143 3144 3144 3145 3146 3147 3149 3149 3150 3152 3152 3153 3154 3155 3156 3157 3158 3160 3161 3161 3161 3162 3163 3164 3164 3164 3165 3166 3167 3168 3168 3169 3170 3170 3171 3172 3172 3173 3174 3175 3175 3176 3176 3177 3176 3176 3176 3176 3176 3176 3175 3175 3175 3176 3176 3175 3175 3174 3173 3175 3175 3175 3175 3174 3174 3174 3174 3174 3174 3174 3174 3174 3174 3174 3175
3123 3125 3126 3128 3129 3131 3132 3134 3135 3137 3137 3138 3140 3141 3142 3143 3144 3144 3145 3146 3147 3148 3149 3149 3151 3152 3152 3153 3155 3157 3158 3158 3159 3159 3160 3161 3162 3162 3163 3164 3164 3165 3166 3167 3167 3168 3168 3169 3170 3170 3171 3172 3172 3173 3174 3175 3175 3175 3175 3174 3175 3175 3175 3175 3175 3174 3174 3174 3174 3173 3171 3171 3172 3173 3172 3173 3172 3171 3171 3172 3171 3171 3171 3171 3171 3171 3171 3171
3120 3121 3123 3125 3126 3128 3129 3131 3133 3134 3135 3136 3138 3139 3140 3141 3141 3142 3143 3143 3144 3146 3147 3148 3149 3149 3149 3151 3153 3154 3155 3156 3157 3158 3159 3159 3160 3160 3161 3162 3162 3163 3164 3165 3165 3166 3166 3166 3167 3167 3169 3171 3171 3171 3173 3174 3174 3174 3173 3173 3173 3174 3174 3174 3174 3173 3173 3172 3171 3171 3169 3168 3169 3169 3169 3170 3169 3168 3168 3168 3168 3168 3168 3168 3168 3168 3168 3168
3116 3118 3120 3122 3123 3125 3127 3128 3130 3131 3132 3134 3135 3137 3137 3138 3139 3139 3140 3141 3142 3144 3145 3145 3145 3146 3147 3148 3150 3152 3153 3154 3155 3156 3156 3157 3158 3159 3159 3160 3161 3161 3162 3163 3163 3163 3164 3163 3163 3166 3168 3169 3169 3170 3170 3171 3172 3172 3172 3172 3171 3171 3171 3172 3172 3171 3171 3169 3168 3168 3166 3165 3165 3165 3166 3166 3165 3164 3164 3164 3164 3164 3163 3164 3164 3164 3164 3164
3112 3114 3116 3118 3120 3122 3124 3125 3127 3128 3129 3131 3133 3134 3134 3136 3137 3137 3138 3139 3140 3141 3142 3142 3142 3143 3143 3145 3147 3149 3150 3151 3152 3154 3154 3155 3156 3156 3157 3158 3159 3159 3160 3161 3160 3161 3161 3159 3161 3165 3167 3167 3167 3167 3168 3168 3169 3169 3170 3169 3169 3169 3169 3170 3170 3169 3169 3167 3165 3165 3163 3161 3161 3162 3162 3162 3161 3160 3161 3161 3160 3160 3159 3159 3160 3160 3160 3160
3109 3110 3113 3115 3116 3118 3120 3122 3124 3125 3126 3128 3130 3131 3133 3134 3134 3135 3135 3135 3136 3138 3139 3139 3139 3138 3140 3142 3144 3146 3146 3148 3150 3151 3152 3153 3154 3155 3155 3156 3157 3158 3158 3157 3157 3159 3158 3157 3160 3164 3165 3164 3165 3165 3165 3166 3166 3167 3168 3167 3167 3168 3168 3168 3168 3167 3167 3164 3162 3162 3160 3157 3158 3158 3158 3159 3157 3157 3157 3157 3157 3156 3155 3155 3155 3156 3155 3155
3104 3106 3109 3110 3112 3115 3116 3118 3120 3121 3123 3125 3127 3129 3130 3131 3132 3133 3133 3132 3132 3134 3135 3135 3135 3135 3136 3138 3140 3142 3143 3145 3147 3148 3149 3150 3152 3153 3152 3153 3155 3156 3156 3154 3155 3156 3155 3156 3159 3161 3161 3162 3162 3163 3163 3163 3164 3165 3165 3165 3165 3166 3166 3165 3165 3165 3165 3163 3160 3159 3155 3151 3153 3153 3154 3155 3153 3152 3153 3153 3152 3152 3151 3151 3152 3152 3151 3151
3100 3102 3104 3106 3108 3110 3112 3114 3116 3117 3119 3122 3125 3127 3128 3129 3130 3130 3130 3129 3127 3128 3131 3132 3132 3131 3132 3134 3137 3138 3139 3141 3142 3143 3145 3147 3149 3150 3150 3152 3153 3152 3153 3153 3153 3152 3152 3155 3157 3158 3159 3160 3160 3160 3161 3162 3162 3163 3163 3163 3163 3164 3165 3163 3163 3163 3161 3160 3159 3157 3151 3144 3146 3148 3148 3151 3150 3149 3150 3149 3148 3148 3148 3149 3148 3147 3148 3148
3096 3098 3100 3102 3104 3105 3108 3109 3111 3114 3117 3119 3122 3124 3126 3126 3127 3128 3128 3126 3121 3121 3126 3127 3127 3126 3127 3131 3132 3134 3136 3135 3137 3139 3141 3144 3146 3147 3148 3150 3149 3149 3151 3152 3151 3149 3148 3153 3155 3155 3157 3158 3158 3158 3159 3160 3160 3160 3160 3161 3162 3162 3163 3162 3162 3161 3159 3158 3157 3157 3150 3138 3139 3143 3144 3146 3146 3146 3147 3145 3144 3145 3144 3144 3143 3143 3144 3144
3092 3094 3096 3098 3099 3101 3103 3103 3108 3112 3113 3117 3120 3121 3123 3123 3124 3125 3126 3125 3116 3113 3118 3121 3122 3121 3122 3124 3126 3131 3132 3129 3132 3136 3138 3141 3142 3144 3145 3145 3145 3146 3148 3150 3149 3145 3144 3149 3152 3152 3154 3155 3155 3155 3156 3157 3158 3158 3157 3159 3160 3160 3160 3160 3160 3159 3157 3155 3154 3156 3153 3140 3132 3135 3139 3141 3141 3141 3143 3141 3141 3141 3139 3139 3139 3138 3139 3140
3087 3090 3092 3094 3095 3097 3098 3100 3105 3108 3110 3114 3116 3117 3119 3120 3122 3122 3124 3125 3112 3105 3111 3114 3115 3115 3116 3119 3123 3129 3126 3122 3127 3132 3133 3136 3138 3140 3141 3140 3142 3144 3146 3148 3146 3140 3141 3145 3147 3149 3151 3151 3151 3152 3153 3155 3155 3154 3154 3157 3158 3157 3158 3158 3158 3157 3155 3154 3152 3152 3154 3144 3128 3125 3133 3136 3136 3136 3137 3138 3137 3136 3135 3134 3134 3134 3134 3135
3082 3085 3087 3089 3092 3093 3095 3097 3101 3104 3107 3111 3112 3114 3115 3116 3119 3119 3124 3123 3107 3099 3104 3107 3108 3110 3112 3116 3119 3123 3120 3118 3124 3127 3128 3132 3135 3137 3137 3136 3139 3140 3144 3145 3140 3138 3140 3142 3143 3145 3147 3147 3148 3150 3151 3153 3153 3152 3153 3155 3155 3155 3156 3155 3155 3155 3153 3152 3149 3147 3153 3146 3125 3121 3130 3131 3130 3131 3132 3133 3133 3132 3131 3130 3130 3130 3130 3132
3076 3079 3082 3085 3087 3089 3090 3092 3097 3101 3104 3106 3108 3110 3111 3114 3116 3117 3122 3118 3101 3095 3099 3101 3103 3105 3108 3111 3114 3116 3116 3116 3120 3122 3126 3129 3130 3132 3133 3134 3136 3137 3139 3139 3136 3137 3139 3139 3141 3142 3143 3143 3145 3148 3149 3150 3150 3150 3151 3152 3153 3153 3153 3154 3153 3153 3153 3149 3144 3144 3150 3144 3123 3116 3126 3128 3127 3128 3128 3129 3129 3129 3129 3127 3126 3127 3127 3128
3070 3073 3078 3080 3081 3083 3086 3088 3093 3099 3101 3103 3105 3106 3108 3111 3111 3115 3118 3108 3095 3093 3094 3096 3100 3101 3103 3107 3108 3110 3112 3113 3116 3119 3123 3124 3125 3128 3129 3132 3134 3133 3134 3135 3134 3135 3136 3137 3138 3138 3139 3140 3143 3145 3146 3147 3147 3148 3149 3149 3151 3151 3150 3152 3150 3150 3151 3143 3138 3141 3144 3143 3128 3115 3120 3125 3125 3125 3124 3125 3126 3126 3126 3125 3124 3124 3124 3125
3066 3068 3072 3074 3075 3079 3081 3084 3090 3095 3097 3099 3101 3103 3105 3106 3107 3110 3106 3097 3093 3090 3088 3092 3096 3096 3098 3101 3103 3106 3109 3110 3113 3115 3117 3119 3121 3123 3125 3127 3129 3130 3130 3130 3130 3131 3132 3133 3133 3134 3135 3137 3140 3142 3143 3144 3144 3145 3146 3147 3149 3149 3148 3149 3147 3149 3149 3137 3133 3137 3138 3140 3129 3114 3116 3121 3122 3123 3122 3121 3122 3122 3123 3123 3123 3122 3122 3122
3061 3063 3066 3068 3071 3074 3076 3081 3087 3089 3091 3094 3096 3097 3099 3101 3102 3100 3094 3093 3092 3084 3081 3087 3090 3092 3095 3098 3101 3103 3106 3107 3109 3111 3113 3116 3117 3118 3120 3121 3124 3126 3125 3124 3127 3128 3128 3128 3129 3131 3132 3134 3136 3138 3139 3140 3141 3142 3143 3145 3148 3148 3148 3147 3145 3146 3142 3133 3131 3134 3135 3132 3119 3111 3116 3118 3119 3121 3121 3120 3120 3119 3120 3120 3120 3120 3120 3120
3056 3059 3061 3061 3064 3067 3071 3077 3081 3082 3084 3087 3089 3091 3093 3093 3090 3088 3086 3088 3086 3077 3078 3084 3086 3089 3093 3094 3096 3099 3102 3103 3105 3108 3110 3112 3113 3114 3116 3117 3119 3121 3119 3120 3124 3125 3124 3124 3125 3127 3128 3129 3131 3132 3134 3134 3136 3136 3138 3141 3143 3146 3148 3146 3143 3141 3135 3130 3129 3132 3133 3125 3113 3110 3113 3114 3116 3119 3118 3119 3118 3117 3117 3117 3117 3117 3117 3117
3052 3055 3056 3056 3057 3061 3066 3071 3072 3074 3077 3078 3080 3083 3085 3082 3079 3081 3079 3078 3079 3077 3078 3081 3082 3086 3089 3089 3091 3094 3097 3099 3101 3104 3106 3108 3108 3108 3110 3112 3114 3117 3118 3120 3120 3120 3121 3119 3119 3122 3123 3124 3125 3126 3128 3130 3132 3132 3134 3137 3137 3140 3142 3139 3137 3135 3130 3128 3128 3130 3128 3118 3109 3109 3109 3110 3114 3114 3114 3116 3116 3115 3115 3114 3114 3114 3114 3114
3047 3049 3050 3052 3053 3055 3059 3063 3064 3066 3067 3069 3071 3072 3073 3071 3071 3073 3069 3069 3075 3076 3076 3079 3081 3082 3084 3086 3089 3091 3094 3095 3097 3101 3102 3102 3102 3102 3105 3107 3109 3112 3115 3116 3116 3116 3117 3114 3115 3119 3119 3121 3122 3123 3125 3127 3129 3130 3132 3134 3133 3133 3135 3133 3131 3130 3129 3127 3125 3124 3118 3109 3106 3105 3106 3109 3110 3110 3111 3111 3113 3113 3112 3111 3111 3111 3111 3111
3042 3043 3044 3045 3046 3049 3053 3055 3057 3058 3058 3060 3063 3062 3060 3061 3062 3063 3061 3064 3071 3073 3074 3077 3078 3078 3080 3083 3084 3087 3090 3091 3094 3097 3097 3097 3098 3098 3100 3102 3104 3106 3108 3110 3111 3111 3113 3111 3112 3115 3116 3119 3120 3121 3122 3123 3125 3126 3127 3127 3128 3130 3131 3132 3130 3128 3129 3127 3119 3115 3110 3105 3104 3100 3100 3106 3106 3107 3109 3108 3109 3110 3109 3108 3108 3107 3108 3108
3035 3037 3037 3037 3040 3044 3048 3050 3051 3051 3050 3051 3053 3052 3052 3053 3055 3058 3060 3063 3067 3070 3072 3073 3073 3074 3076 3078 3079 3082 3086 3088 3091 3092 3093 3094 3093 3092 3094 3097 3100 3102 3103 3106 3108 3108 3110 3109 3108 3111 3113 3115 3117 3118 3119 3119 3121 3122 3122 3123 3126 3129 3130 3131 3130 3128 3129 3126 3114 3108 3105 3103 3102 3095 3095 3101 3103 3104 3107 3106 3106 3106 3106 3106 3105 3105 3106 3106
3030 3031 3030 3030 3034 3039 3044 3045 3044 3043 3044 3043 3044 3046 3047 3048 3050 3054 3058 3061 3064 3067 3068 3068 3069 3070 3072 3073 3075 3078 3082 3083 3085 3087 3089 3090 3087 3085 3089 3093 3095 3098 3100 3104 3106 3107 3108 3107 3107 3108 3110 3113 3115 3115 3115 3115 3118 3119 3119 3121 3123 3125 3125 3127 3129 3126 3126 3123 3112 3103 3100 3096 3094 3092 3093 3097 3100 3102 3103 3103 3104 3103 3104 3104 3103 3103 3103 3103
3025 3025 3022 3024 3029 3034 3039 3040 3037 3035 3035 3035 3037 3038 3038 3038 3041 3047 3053 3057 3060 3062 3063 3063 3064 3066 3067 3068 3071 3074 3077 3078 3080 3082 3083 3084 3082 3080 3085 3089 3091 3094 3097 3100 3101 3103 3105 3105 3104 3104 3107 3110 3111 3110 3111 3112 3114 3116 3117 3118 3119 3120 3120 3121 3122 3120 3120 3120 3111 3102 3095 3088 3086 3089 3092 3095 3097 3099 3100 3100 3101 3102 3102 3102 3101 3101 3101 3101
3020 3019 3016 3020 3024 3028 3034 3035 3030 3025 3022 3024 3027 3027 3027 3029 3033 3040 3045 3051 3055 3056 3057 3057 3060 3062 3062 3064 3067 3070 3072 3073 3075 3076 3077 3078 3077 3077 3080 3084 3087 3091 3095 3097 3098 3101 3102 3102 3101 3101 3104 3105 3104 3105 3106 3107 3109 3110 3111 3114 3115 3116 3117 3117 3117 3115 3115 3115 3110 3104 3092 3081 3082 3087 3089 3092 3094 3095 3097 3098 3099 3100 3100 3100 3100 3099 3099 3100
3015 3013 3011 3017 3020 3024 3029 3027 3020 3016 3015 3017 3020 3020 3022 3025 3028 3032 3037 3043 3048 3051 3053 3054 3056 3057 3058 3059 3061 3064 3067 3068 3069 3071 3071 3071 3072 3073 3076 3080 3084 3088 3091 3092 3093 3095 3097 3097 3098 3098 3097 3097 3099 3102 3104 3104 3104 3104 3105 3106 3108 3111 3114 3115 3113 3110 3111 3110 3105 3103 3089 3075 3079 3085 3085 3089 3092 3092 3095 3095 3096 3097 3097 3097 3097 3097 3098 3098
3008 3006 3007 3012 3015 3018 3021 3016 3012 3012 3011 3011 3013 3015 3017 3020 3023 3027 3031 3037 3042 3047 3050 3051 3051 3053 3054 3055 3056 3058 3062 3063 3064 3065 3065 3065 3067 3070 3074 3078 3082 3084 3086 3087 3088 3090 3092 3094 3094 3093 3092 3094 3098 3100 3101 3102 3102 3102 3102 3103 3106 3108 3107 3108 3107 3105 3107 3104 3100 3103 3091 3071 3072 3080 3082 3086 3089 3089 3092 3093 3093 3094 3094 3095 3095 3095 3096 3096
3001 3002 3004 3005 3008 3013 3014 3009 3007 3007 3005 3006 3010 3012 3014 3017 3020 3024 3028 3032 3036 3041 3044 3044 3046 3048 3050 3052 3053 3054 3057 3059 3059 3059 3060 3062 3064 3068 3073 3075 3078 3080 3081 3082 3084 3087 3089 3091 3091 3091 3091 3092 3094 3095 3096 3097 3097 3098 3099 3101 3103 3102 3100 3103 3103 3102 3103 3098 3096 3103 3091 3067 3067 3076 3079 3083 3085 3087 3090 3090 3091 3092 3092 3093 3094 3094 3095 3095
2995 2998 3000 3001 3003 3005 3003 3001 3000 3001 3001 3004 3007 3009 3013 3015 3016 3019 3023 3025 3028 3033 3037 3038 3040 3044 3046 3049 3051 3051 3053 3055 3054 3054 3056 3058 3060 3065 3070 3071 3073 3074 3075 3076 3079 3083 3085 3086 3088 3090 3090 3090 3089 3090 3090 3091 3093 3094 3094 3096 3096 3096 3099 3100 3099 3101 3098 3088 3091 3099 3083 3063 3068 3076 3076 3080 3082 3083 3086 3087 3088 3089 3089 3091 3091 3092 3093 3092
2992 2993 2994 2997 2999 2995 2992 2995 2997 2997 2999 3002 3001 3004 3009 3010 3011 3015 3018 3021 3024 3029 3032 3033 3036 3040 3043 3045 3048 3048 3049 3050 3050 3051 3052 3054 3056 3061 3065 3067 3068 3069 3070 3073 3076 3078 3079 3079 3081 3084 3084 3082 3078 3078 3081 3084 3088 3089 3088 3089 3091 3093 3095 3094 3095 3097 3089 3080 3086 3089 3072 3062 3070 3074 3073 3077 3079 3079 3082 3084 3085 3086 3087 3087 3088 3089 3089 3089
2986 2986 2987 2991 2994 2989 2987 2991 2994 2994 2997 2999 2998 3001 3004 3005 3007 3011 3015 3018 3021 3024 3027 3029 3032 3037 3039 3041 3044 3045 3044 3045 3047 3048 3048 3050 3052 3055 3058 3062 3063 3064 3068 3070 3072 3073 3073 3072 3074 3075 3074 3071 3068 3070 3076 3079 3082 3082 3081 3084 3086 3086 3088 3090 3092 3086 3078 3080 3080 3071 3066 3066 3066 3068 3071 3073 3075 3077 3079 3080 3081 3082 3083 3084 3085 3085 3085 3085
2980 2978 2980 2984 2987 2985 2983 2984 2986 2989 2993 2995 2994 2995 2997 2999 3004 3008 3011 3014 3016 3019 3022 3024 3028 3031 3033 3036 3037 3038 3039 3041 3043 3043 3044 3045 3048 3050 3053 3057 3059 3061 3064 3066 3067 3068 3068 3067 3069 3069 3068 3067 3066 3069 3073 3073 3073 3074 3076 3078 3079 3080 3083 3083 3079 3071 3074 3081 3070 3058 3068 3069 3056 3060 3069 3069 3072 3075 3075 3076 3077 3078 3080 3081 3081 3081 3080 3081
2973 2973 2975 2979 2980 2979 2978 2977 2978 2982 2987 2989 2990 2991 2993 2995 2999 3002 3005 3008 3012 3015 3017 3018 3021 3023 3025 3029 3032 3033 3035 3037 3037 3038 3039 3041 3044 3046 3049 3052 3055 3057 3059 3061 3061 3063 3063 3063 3064 3065 3064 3063 3063 3066 3068 3068 3067 3068 3070 3072 3072 3075 3075 3069 3065 3065 3072 3075 3062 3055 3067 3062 3048 3056 3065 3064 3069 3071 3070 3072 3073 3074 3075 3075 3075 3076 3076 3076
2968 2968 2970 2973 2973 2973 2975 2975 2975 2977 2979 2982 2984 2986 2988 2990 2992 2995 2999 3003 3006 3009 3012 3012 3012 3014 3018 3023 3027 3028 3029 3031 3030 3031 3034 3037 3039 3042 3045 3047 3049 3052 3054 3055 3056 3058 3058 3058 3059 3060 3060 3058 3058 3061 3063 3064 3065 3064 3064 3066 3067 3066 3063 3058 3059 3065 3069 3067 3057 3055 3061 3054 3046 3054 3060 3059 3064 3066 3065 3067 3068 3068 3069 3070 3070 3071 3071 3072
2963 2963 2965 2967 2967 2968 2970 2971 2973 2973 2973 2974 2976 2979 2982 2984 2986 2989 2994 2997 2997 3000 3005 3005 3005 3010 3015 3019 3021 3021 3022 3024 3024 3026 3031 3034 3035 3036 3039 3040 3043 3046 3048 3050 3051 3053 3053 3053 3054 3057 3056 3052 3050 3054 3059 3060 3061 3059 3060 3060 3057 3053 3052 3054 3058 3062 3063 3059 3052 3055 3057 3045 3039 3048 3055 3056 3058 3060 3060 3061 3061 3062 3063 3064 3065 3066 3066 3067
2957 2958 2960 2961 2960 2963 2965 2965 2968 2969 2968 2968 2968 2972 2976 2977 2980 2984 2987 2989 2991 2994 2998 3000 3002 3008 3012 3014 3015 3016 3017 3020 3022 3025 3029 3030 3031 3032 3034 3035 3038 3041 3043 3045 3046 3047 3049 3049 3050 3053 3052 3045 3043 3048 3054 3055 3056 3057 3053 3047 3041 3042 3046 3050 3052 3052 3052 3051 3050 3054 3050 3036 3035 3045 3050 3050 3053 3054 3054 3054 3056 3057 3058 3058 3059 3060 3061 3062
2953 2954 2955 2956 2954 2956 2959 2960 2962 2963 2963 2964 2965 2967 2970 2972 2976 2981 2982 2984 2988 2991 2994 2997 3000 3004 3006 3007 3009 3011 3013 3017 3020 3022 3025 3026 3027 3029 3030 3031 3033 3035 3038 3041 3041 3042 3044 3045 3045 3048 3046 3040 3038 3043 3048 3050 3052 3048 3037 3029 3031 3038 3043 3044 3043 3042 3044 3046 3047 3045 3038 3032 3038 3044 3043 3044 3046 3047 3047 3049 3051 3051 3052 3053 3054 3055 3056 3056